| time (UTC) | temp F | wind direction | speed MPH | gust MPH | rain 1hr in | rain 24hr in | rain mn in | humidity % | barometer mb |
| 20260505124608 | 56 | 340 | 0.0 | 0.0 | 0.00 | 0.00 | 0.00 | 67 | 1008.4 |
| 20260505123057 | 57 | 341 | 0.0 | 1.0 | 0.00 | 0.00 | 0.00 | 65 | 1008.2 |
| 20260505121559 | 57 | 307 | 1.0 | 3.0 | 0.00 | 0.00 | 0.00 | 66 | 1008.2 |
| 20260505120056 | 56 | 256 | 0.0 | 1.0 | 0.00 | 0.00 | 0.00 | 69 | 1007.9 |
| 20260505114559 | 56 | 322 | 0.0 | 2.0 | 0.00 | 0.00 | 0.00 | 72 | 1007.7 |
| 20260505113101 | 56 | 258 | 0.0 | 1.0 | 0.00 | 0.00 | 0.00 | 71 | 1007.6 |
| 20260505111546 | 58 | 225 | 1.0 | 3.0 | 0.00 | 0.00 | 0.00 | 67 | 1007.4 |
| 20260505101545 | 60 | 255 | 0.0 | 1.0 | 0.00 | 0.00 | 0.00 | 63 | 1006.5 |
| 20260505100037 | 61 | 196 | 0.0 | 1.0 | 0.00 | 0.00 | 0.00 | 61 | 1006.3 |
| 20260505094536 | 63 | 269 | 1.0 | 3.0 | 0.00 | 0.00 | 0.00 | 58 | 1006.2 |
| 20260505093031 | 64 | 229 | 2.0 | 2.0 | 0.00 | 0.00 | 0.00 | 56 | 1006.1 |
| 20260505091526 | 65 | 133 | 0.0 | 1.0 | 0.00 | 0.00 | 0.00 | 54 | 1006.1 |
| 20260505090024 | 68 | 65 | 2.0 | 6.0 | 0.00 | 0.00 | 0.00 | 49 | 1006.0 |
| 20260505084524 | 72 | 267 | 1.0 | 7.0 | 0.00 | 0.00 | 0.00 | 39 | 1005.7 |
| 20260505083023 | 71 | 272 | 6.0 | 12.0 | 0.00 | 0.00 | 0.00 | 41 | 1005.7 |
| 20260505081521 | 71 | 271 | 7.0 | 14.0 | 0.00 | 0.00 | 0.00 | 40 | 1005.6 |
| 20260505080020 | 72 | 248 | 8.0 | 15.0 | 0.00 | 0.00 | 0.00 | 39 | 1005.6 |
| 20260505074518 | 71 | 276 | 6.0 | 13.0 | 0.00 | 0.00 | 0.00 | 40 | 1005.6 |
| 20260505073014 | 67 | 309 | 1.0 | 6.0 | 0.00 | 0.00 | 0.00 | 46 | 1005.6 |
| 20260505071527 | 65 | 157 | 2.0 | 5.0 | 0.00 | 0.00 | 0.00 | 54 | 1005.4 |
| 20260505070009 | 68 | 276 | 3.0 | 6.0 | 0.00 | 0.00 | 0.00 | 45 | 1005.0 |
| 20260505064510 | 65 | 244 | 2.0 | 4.0 | 0.00 | 0.00 | 0.00 | 48 | 1005.0 |
| 20260505063009 | 68 | 249 | 1.0 | 3.0 | 0.00 | 0.00 | 0.00 | 42 | 1004.8 |
| 20260505061508 | 70 | 17 | 1.0 | 7.0 | 0.00 | 0.00 | 0.00 | 40 | 1004.8 |
| 20260505060032 | 69 | 239 | 0.0 | 2.0 | 0.00 | 0.00 | 0.00 | 40 | 1004.5 |
| 20260505054511 | 69 | 238 | 2.0 | 4.0 | 0.00 | 0.00 | 0.00 | 39 | 1004.5 |
| 20260505053006 | 70 | 237 | 0.0 | 2.0 | 0.00 | 0.00 | 0.00 | 44 | 1004.6 |
| 20260505051515 | 70 | 14 | 5.0 | 14.0 | 0.00 | 0.00 | 0.00 | 46 | 1004.7 |
| 20260505041507 | 72 | 191 | 1.0 | 2.0 | 0.00 | 0.00 | 0.00 | 38 | 1003.9 |
| 20260505040004 | 71 | 180 | 0.0 | 4.0 | 0.00 | 0.00 | 0.00 | 45 | 1003.8 |
| 20260505034504 | 73 | 198 | 0.0 | 1.0 | 0.00 | 0.00 | 0.00 | 40 | 1003.7 |
| 20260505033003 | 73 | 206 | 2.0 | 3.0 | 0.00 | 0.00 | 0.00 | 39 | 1003.5 |
| 20260505031503 | 74 | 200 | 2.0 | 3.0 | 0.00 | 0.00 | 0.00 | 38 | 1003.5 |
| 20260505030002 | 76 | 235 | 3.0 | 4.0 | 0.00 | 0.00 | 0.00 | 34 | 1003.3 |
| 20260505024504 | 79 | 220 | 2.0 | 2.0 | 0.00 | 0.00 | 0.00 | 31 | 1003.2 |
| 20260505023003 | 82 | 331 | 1.0 | 4.0 | 0.00 | 0.00 | 0.00 | 26 | 1003.2 |
| 20260505021559 | 84 | 132 | 2.0 | 3.0 | 0.00 | 0.00 | 0.00 | 24 | 1003.2 |
| 20260505020059 | 86 | 124 | 1.0 | 2.0 | 0.00 | 0.00 | 0.00 | 23 | 1003.3 |
| 20260505014558 | 86 | 88 | 2.0 | 5.0 | 0.00 | 0.00 | 0.00 | 24 | 1003.4 |
| 20260505013125 | 87 | 102 | 3.0 | 5.0 | 0.00 | 0.00 | 0.00 | 21 | 1003.5 |
| 20260505011607 | 87 | 121 | 2.0 | 5.0 | 0.00 | 0.00 | 0.00 | 21 | 1003.6 |
| 20260505010109 | 87 | 128 | 2.0 | 3.0 | 0.00 | 0.00 | 0.00 | 22 | 1003.7 |
| 20260505004553 | 87 | 84 | 3.0 | 7.0 | 0.00 | 0.00 | 0.00 | 25 | 1003.8 |
| 20260505003056 | 88 | 109 | 4.0 | 6.0 | 0.00 | 0.00 | 0.00 | 22 | 1003.8 |
| 20260505001553 | 87 | 52 | 5.0 | 8.0 | 0.00 | 0.00 | 0.00 | 22 | 1003.9 |
| 20260505000100 | 87 | 90 | 5.0 | 10.0 | 0.00 | 0.00 | 0.00 | 29 | 1003.8 |
| 20260504234552 | 88 | 117 | 5.0 | 12.0 | 0.00 | 0.00 | 0.00 | 23 | 1003.7 |
| 20260504233058 | 88 | 109 | 3.0 | 7.0 | 0.00 | 0.00 | 0.00 | 25 | 1003.8 |
| 20260504231550 | 87 | 62 | 5.0 | 8.0 | 0.00 | 0.00 | 0.00 | 23 | 1003.9 |
| 20260504230056 | 87 | 61 | 5.0 | 9.0 | 0.00 | 0.00 | 0.00 | 25 | 1004.0 |
| 20260504224547 | 88 | 346 | 5.0 | 12.0 | 0.00 | 0.00 | 0.00 | 20 | 1004.1 |
| 20260504223054 | 87 | 350 | 6.0 | 11.0 | 0.00 | 0.00 | 0.00 | 22 | 1004.3 |
| 20260504221542 | 87 | 103 | 4.0 | 12.0 | 0.00 | 0.00 | 0.00 | 23 | 1004.5 |
| 20260504220044 | 86 | 58 | 3.0 | 13.0 | 0.00 | 0.00 | 0.00 | 23 | 1004.7 |
| 20260504214546 | 86 | 76 | 6.0 | 8.0 | 0.00 | 0.00 | 0.00 | 27 | 1004.9 |
| 20260504213041 | 86 | 27 | 3.0 | 7.0 | 0.00 | 0.00 | 0.00 | 23 | 1005.2 |
| 20260504211537 | 86 | 59 | 2.0 | 7.0 | 0.00 | 0.00 | 0.00 | 26 | 1005.4 |
| 20260504210034 | 85 | 159 | 4.0 | 10.0 | 0.00 | 0.00 | 0.00 | 23 | 1005.6 |
| 20260504204532 | 85 | 88 | 3.0 | 10.0 | 0.00 | 0.00 | 0.00 | 25 | 1005.8 |
| 20260504203032 | 85 | 150 | 3.0 | 9.0 | 0.00 | 0.00 | 0.00 | 25 | 1006.0 |
| 20260504201528 | 84 | 80 | 3.0 | 8.0 | 0.00 | 0.00 | 0.00 | 23 | 1006.2 |
| 20260504200027 | 84 | 130 | 3.0 | 10.0 | 0.00 | 0.00 | 0.00 | 24 | 1006.3 |
| 20260504194524 | 84 | 44 | 1.0 | 7.0 | 0.00 | 0.00 | 0.00 | 23 | 1006.4 |
| 20260504193026 | 83 | 351 | 2.0 | 9.0 | 0.00 | 0.00 | 0.00 | 27 | 1006.5 |
| 20260504191523 | 82 | 53 | 5.0 | 11.0 | 0.00 | 0.00 | 0.00 | 24 | 1006.7 |
| 20260504190019 | 82 | 22 | 4.0 | 11.0 | 0.00 | 0.00 | 0.00 | 27 | 1006.8 |
| 20260504184520 | 81 | 74 | 4.0 | 7.0 | 0.00 | 0.00 | 0.00 | 30 | 1006.7 |
| 20260504183016 | 80 | 80 | 1.0 | 6.0 | 0.00 | 0.00 | 0.00 | 32 | 1006.9 |
| 20260504181523 | 80 | 57 | 2.0 | 8.0 | 0.00 | 0.00 | 0.00 | 31 | 1006.9 |
| 20260504180012 | 79 | 34 | 4.0 | 7.0 | 0.00 | 0.00 | 0.00 | 32 | 1007.1 |
| 20260504174510 | 78 | 65 | 2.0 | 8.0 | 0.00 | 0.00 | 0.00 | 33 | 1007.1 |
| 20260504173009 | 78 | 343 | 2.0 | 5.0 | 0.00 | 0.00 | 0.00 | 37 | 1007.2 |
| 20260504171508 | 76 | 90 | 2.0 | 5.0 | 0.00 | 0.00 | 0.00 | 36 | 1007.3 |
| 20260504160104 | 73 | 248 | 4.0 | 10.0 | 0.00 | 0.00 | 0.00 | 38 | 1007.3 |